Regional Weather Roundup
Issued by NWS Wakefield, VA

Home | Current Version | Previous Version | Text Only | Print | Product List | Glossary On
Versions: 1 2 3 4 5 6 7 8 9 10 11 12 13 14 15 16 17 18 19 20 21 22 23 24 25 26 27 28
000
ASUS41 KAKQ 240715
RWRAKQ

REGIONAL WEATHER ROUNDUP
NATIONAL WEATHER SERVICE WAKEFIELD VA
300 AM EDT THU AUG 24 2017

Note: "fair" indicates few or no clouds below 12,000 feet with no
significant weather and/or obstructions to visibility. * = Denotes
station may not report precipitation (e.g., rain,snow,etc.),
thunder or fog.

VAZ042-051-052>054-056-240800-
NORTHERN VIRGINIA

CITY           SKY/WX    TMP DP  RH WIND       PRES   REMARKS
WASH NATIONAL  MOCLDY    73  61  65 N7        29.91F
DULLES         PTCLDY    61  59  93 CALM      29.92F
FORT BELVOIR   CLOUDY    64  63  95 CALM      29.91S
QUANTICO       CLOUDY    69  65  86 NW3       29.91S
FREDERICKSBRG* CLOUDY    68  68 100 CALM      29.90R
STAFFORD*      MOCLDY    65  65  97 N5        29.95R
WARRENTON      CLOUDY    63  60  87 CALM      29.92S
CULPEPER*      CLOUDY    65  63  91 N5        29.94R
MANASSAS*      CLOUDY    65  60  84 N3        29.92F
LEESBURG*      CLEAR     64  61  88 CALM      29.94S
WINCHESTER     CLEAR     61  54  77 NW6       29.95S
FRONT ROYAL*   PTSUNNY   64  61  88 CALM      29.94S
LURAY*         CLOUDY    68  61  77 CALM      29.96S
$$

VAZ048-049-060>072-079>083-240800-
CENTRAL AND SOUTH CENTRAL VIRGINIA

CITY           SKY/WX    TMP DP  RH WIND       PRES   REMARKS
RICHMOND       CLOUDY    68  67  96 NW6       29.90R
CHESTERFIELD*  CLOUDY    67  66  97 CALM      29.91R
PETERSBURG*    MOCLDY    65  65 100 CALM      29.90S FOG
HANOVER        CLOUDY    67  64  90 CALM      29.92R
TAPPAHANNOCK*  CLEAR    N/A N/A N/A CALM      29.90S
QUINTON*       FAIR     N/A N/A N/A CALM      29.88S
CHARLOTTSVILLE CLOUDY    68  65  90 W6        29.93F
GORDONSVILLE*  CLOUDY    68  65  91 CALM      29.92S
ORANGE*        CLOUDY    68  63  83 CALM      29.92F
LOUISA*        MOCLDY    68  64  88 NW3       29.92S
BUMPASS*       CLOUDY    68  68 100 CALM      29.91S
FARMVILLE*     CLOUDY    71  68  90 N3        29.91S
CREWE*         CLOUDY    68  64  87 NW5       29.91S
FORT PICKETT*  FAIR     N/A N/A N/A N7        29.91S
CHASE CITY*    CLOUDY    69  69  99 N3        29.91R
CLARKSVILLE*   CLOUDY    72  72 100 CALM      29.90R
SOUTH HILL*    PTCLDY    67  67 100 N3        29.96R
LAWRENCEVILLE* FAIR      68  67  97 N5        29.89S
EMPORIA*       MOCLDY    68  68 100 NW6       29.89R
$$

VAZ088>098-240800-
SOUTHEAST VIRGINIA

CITY           SKY/WX    TMP DP  RH WIND       PRES   REMARKS
NORFOLK        CLOUDY    78  68  71 N12       29.85S
VIRGINIA BEACH CLOUDY    74  68  81 N10       29.84S
NORFOLK NAVAL  MOCLDY    75  68  78 NE14      29.86F
WEST POINT*    CLEAR     68  67  98 CALM      29.89S
SALUDA*        FAIR      73  69  88 N6        29.88R
NEWPORT NEWS   CLEAR     71  68  90 N7        29.86F
LANGLEY AFB    PTCLDY    75  68  78 NE8       29.85F
FORT EUSTIS    CLEAR     73  69  88 N6        29.84F
WILLIAMSBURG*  CLEAR     72  72 100 CALM      29.88S
HR EXEC AP*    FAIR      72  70  94 NE3       29.83F
FRANKLIN*      CLEAR     70  69  96 N6        29.86S
US460-WAKEFLD  CLEAR     69  69 100 N3        29.87F FOG
$$

VAZ020-022-025-037-045-240800-
WEST CENTRAL AND SOUTHWEST VIRGINIA

CITY           SKY/WX    TMP DP  RH WIND       PRES   REMARKS
STAUNTON*      CLOUDY    64  58  79 CALM      29.98F
WAYNESBORO*    SUNNY     60  59  97 CALM      29.98F
HOT SPRINGS VA MOCLDY    55  46  71 CALM      30.06F
LYNCHBURG      MOCLDY    70  67  90 N3        29.94S
DANVILLE       MOCLDY    71  69  93 NE5       29.92S
SOUTH BOSTON*  PTSUNNY   69  68  95 CALM      29.91R
MARTINSVILLE   MOCLDY    65  61  87 CALM      29.97R
ROANOKE        MOCLDY    68  59  73 W3        29.98F
BLACKSBURG     CLEAR     59  58  96 CALM      30.04S
DUBLIN*        PTCLDY    64  57  79 NW5       30.03S
MARION*        CLEAR     59  44  58 CALM      30.07S
HILLSVILLE*    PTCLDY    62  53  72 CALM      30.02F
RICHLANDS*     FAIR      60  50  71 NE3       30.05F
WISE*          PTCLDY    61  52  72 CALM      30.07F
ABINGDON*      CLEAR     65  58  80 E5        30.02S
$$

MDZ021>025-VAZ099-100-240800-
SOUTHERN MARYLAND AND THE DELMARVA PENINSULA

CITY           SKY/WX    TMP DP  RH WIND       PRES   REMARKS
PATUXENT RIVER CLEAR     67  67 100 NW6       29.88S
BAY BRIDGE APT CLEAR     70  59  68 N3        29.89F
LEONARDTOWN    NOT AVBL
DOVER          CLEAR     66  57  72 NW6       29.88S
GEORGETOWN     CLEAR     69  60  73 N3        29.89S
EASTON         CLEAR    N/A N/A N/A NE3       29.93S
CAMBRIDGE      CLEAR     64  64 100 CALM      29.88S
SALISBURY      CLEAR     66  65  96 N3        29.87F
OCEAN CITY     CLEAR     67  67 100 NW5       29.88S
WALLOPS ISLAND CLEAR     69  67  93 NW6       29.87S
ACCOMACK*      CLEAR     67  66  96 NE3       29.87S
$$

NCZ012>017-030>032-240800-
NORTH CENTRAL AND EASTERN NORTH CAROLINA

CITY           SKY/WX    TMP DP  RH WIND       PRES   REMARKS
ROANOKE RAPIDS CLOUDY    72  72 100 CALM      29.87S
RALEIGH        MOCLDY    74  73  97 CALM      29.90S
ELIZABETH CITY CLOUDY    76  75  97 N7        29.85R
AHOSKIE*       NOT AVBL
EDENTON*       CLOUDY    75  73  93 CALM      29.86R
CURRITUCK*     CLOUDY    77  73  87 NE9       29.84S
KILL DEVIL HLS CLOUDY    76  76 100 CALM      29.82S FOG
MANTEO         CLOUDY    75  74  97 N5        29.83F
CAPE HATTERAS  MOCLDY    79  75  87 VRB6      29.83R
TARBORO*       NOT AVBL
GOLDSBORO      CLEAR     73  70  89 N1        29.86F
WASHINGTON     CLOUDY    72  71  96 CALM      29.87S
GREENVILLE     CLOUDY    73  73 100 CALM      29.89S
NEW BERN       CLOUDY    72  72 100 NW5       29.87R
WILMINGTON     RAIN      74  73  97 SW9       29.86R
$$

VAZ048-240800-
ELSEWHERE

CITY           SKY/WX    TMP DP  RH WIND       PRES   REMARKS
HARRISBURG PA  PTCLDY    64  58  80 NW7       29.91F
BALTIMORE      PTCLDY    62  61  96 W3        29.90S
ANNAPOLIS      CLEAR     73  71  93 NW3       29.89S
ANDREWS AFB    MOCLDY    64  60  90 CALM      29.90S
PHILADELPHIA   PTCLDY    68  56  65 NW3       29.89S
HENDERSON NC   MOCLDY    69  67  93 CALM      29.91S
GREENSBORO     CLOUDY    73  71  93 N8        29.92R
ROCKY MOUNT    CLOUDY    73  73 100 CALM      29.87S
$$

VAZ100-240800-
MARINE

STATION/POSITION TIME  TEMP    WIND        PRES    WAVE   SWELL
                       AIR SEA DIR/SP/G            HT/PER HT/PER
                 (UTC) (F)     (DEG/KT/KT) (MB)    (FT/S) (FT/S)
BRANDYWINE LGT   0636   76      10/ 14/ 15 1012.1R
CAPE MAY NJ      0648   73 77   50/  2/  5 1011.3R
LEWES DE         0636   77 78   20/  7/ 10 1011.4S
15NM E FENWICK I 0650   77 78  360/ 14/ 16 1011.6R   2/ 8   2/ 8
OCEAN-CITY-INLET 0636   73 75  360/  4/  5 1011.7F
WACHAPREAGUE VA  0648   71 81  360/  5/  6 1011.3R
THOMAS POINT MD  0700   75 81  350/  8/  8   N/A
GOOSES REEF MD   0700   78 80   60/  8/ 12 1012.8
COVE POINT MD    0648   76      60/  9/ 11 1012.7R
SOLOMONS ISLAND  0636   72 81  340/  5/  6   N/A
BISHOPS HEAD MD  0648   73 80  350/  5/  7 1011.8F
PINEY POINT MD   0648           30/  7/  8   N/A
POTOMAC MD       0700   78 81   40/  8/ 10 1010.9    1
CAMBRIDGE MD     0636   73 81              1012.6F
LEWISETTA VA     0636   77 81   40/  5/  8 1011.4F
RAPPAHANNOCK LGT 0648           20/ 17/ 20 1011.8F
STINGRAY PT      0700   78 81   60/ 12/ 14 1011.7    2/ 3
YORK RVR RNG VA  0648   78      30/ 12/ 13 1011.5F
YORKTOWN VA      0648   74 83  340/  8/  9 1011.0F
JAMESTOWN VA     0700      85   10/  4/  6   N/A     0
DOMINION TERM VA 0648   77      50/  2/  3 1011.0F
KIPTOPEKE VA     0636      81   20/  6/  8   N/A
CHES BAY BRIDGE  0648   77 80   50/ 14/ 16 1010.6S
CAPE HENRY VA    0648   75      30/ 14/ 16   N/A
WILLOUBY STN VA  0636   78      20/ 11/ 12 1010.9F
S CRANEY ISL VA  0648   78      30/ 13/ 16 1010.4F
CAPE HENRY BUOY  0700      80                N/A     3/ 5   2/14
1ST LANDING BUOY 0700   77 79              1010.8    2/ 3
64NM E OF VA BCH 0650   78 79   20/ 17/ 19 1009.8F   4/ 8   2/ 8
DUCK PIER NC     0648   77 69   30/ 12/ 14 1009.9R
44100 DUCK FRF   0605      80                N/A     2/ 9   2/11
44056 DUCK FRF   0630      75                N/A     2/ 8
OREGON INLET NC  0636   77 78  300/  6/  9 1009.8F
HATTERAS NC      0648   79 80  340/ 11/ 12 1010.2R
DIAMOND SHLS NC  0650   80 85  330/ 12/ 16 1009.6R   4/ 5   2/ 8
CAPE LOOKOUT NC  0700   77     270/  8/  9 1009.9R
$$




USA.gov is the U.S. government's official web portal to all federal, state and local government web resources and services.